Home   Weather   Fairfield   Past weeks
Flag for United Kingdom

Past Weather in Fairfield, Northern Ireland, United Kingdom — Yesterday and Last 2 Weeks

Now
44 °F

Lots of rain. Overcast.


Feels Like: 38 °F
Forecast: N/A
Wind: 14 mph from West

Location: Castlederg

Current Time: Dec 8, 2019 at 9:08:05 pm

Latest Report: Dec 8, 2019 at 8:00 pm


Visibility: 11 mi

Pressure: 29.00 "Hg

Humidity: 85%

Dew Point: 40 °F

Location of FairfieldLocation

Past Weather in Fairfield — Graph

°F

Fairfield Temperature Yesterday

Maximum temperature yesterday: 53 °F (at 6:00 pm)
Minimum temperature yesterday: 45 °F (at 1:00 am)
Average temperature yesterday: 49 °F

High & Low Weather Summary for the Past Weeks

 TemperatureHumidityPressure
High55 °F (Dec 5, 4:00 pm)100% (Nov 24, 4:00 am)30.51 "Hg (Nov 24, 4:00 am)
Low27 °F (Nov 30, 9:00 am)66% (Nov 29, 2:00 pm)28.94 "Hg (Nov 26, 2:00 pm)
Average44 °F92%29.71 "Hg
* Reported Nov 23 8:00 pm — Dec 8 8:00 pm, Fairfield. Weather by CustomWeather, © 2019

Note: Actual official high and low records may vary slightly from our data, if they occured in-between our weather recording intervals... More about our weather records

Fairfield Weather History for the Previous 24 Hours

Scroll right to see more
 ConditionsComfort  
Time TempWeatherWind HumidityBarometerVisibility
8:00 pm
Sun, Dec 8
44 °FLots of rain. Overcast.14 mph85%29.00 "Hg11 mi
7:00 pm43 °FQuite cool.10 mph86%29.00 "Hg14 mi
6:00 pm44 °FQuite cool.14 mph89%28.97 "Hg11 mi
5:00 pm43 °FRain showers. Overcast.20 mph91%28.97 "Hg7 mi
4:00 pm43 °FLots of rain. Cloudy.20 mph91%29.00 "Hg7 mi
3:00 pm43 °FQuite cool.29 mph86%29.00 "Hg14 mi
2:00 pm44 °FRain showers. Cloudy.20 mph88%29.03 "Hg4 mi
1:00 pm40 °FLots of rain. Cloudy.20 mph92%29.09 "Hg6 mi
12:00 pm44 °FLots of rain. Cloudy.23 mph87%29.09 "Hg7 mi
11:00 am42 °FRain showers. Cloudy.22 mph86%29.12 "Hg11 mi
10:00 am40 °FRain. Cloudy.21 mph93%29.15 "Hg1 mi
9:00 am43 °FQuite cool.29 mph84%29.15 "Hg16 mi
8:00 am42 °FRain showers. Overcast.23 mph87%29.15 "Hg4 mi
7:00 am42 °FQuite cool.16 mph88%29.18 "Hg13 mi
6:00 am42 °FLots of rain. Overcast.15 mph88%29.21 "Hg8 mi
5:00 am45 °FRain showers. Overcast.22 mph81%29.21 "Hg9 mi
4:00 am42 °FLots of rain. Overcast.21 mph85%29.23 "Hg7 mi
3:00 am44 °FRain showers. Overcast.10 mph84%29.23 "Hg13 mi
2:00 am45 °FCool.15 mph83%29.23 "Hg12 mi
1:00 am47 °FCool.13 mph84%29.23 "Hg10 mi
12:00 am49 °FCool.18 mph82%29.18 "Hg9 mi
11:00 pm
Sat, Dec 7
48 °FCool.12 mph89%29.18 "Hg19 mi
10:00 pm53 °FRain. Overcast.22 mph97%29.15 "Hg2 mi
9:00 pm52 °FRain. Overcast.23 mph94%29.15 "Hg2 mi
Weather by CustomWeather, © 2019

See weather overview

Advertising